Location: Shenandoah County Park
(38.9356°N, 78.4524°W)
Time: 06:05:01
(UTC-04:00)

Explorer 11/Cluster Stage 4 - Pass Details

Date: 23 February 2024
Orbit: 465 x 1220 km, 28.8° (Epoch: 12 April)

Event Time Altitude Azimuth Distance (km) Brightness Sun altitude
Rises 01:48:25 0° 230° (SW) 4,108 - -55.8°
Reaches altitude 10° 01:51:52 10° 219° (SW) 3,098 - -55.4°
Maximum altitude 01:58:05 27° 166° (SSE) 1,978 - -54.7°
Drops below altitude 10° 02:03:41 10° 112° (ESE) 2,759 - -53.9°
Sets 02:06:34 0° 100° (E) 3,585 - -53.5°
